Погода в Взморье

Россия / Сахалинская область     47°51′03″N   142°30′55″E
темп.,
°C
ветер,
м/с
пор.,
м/с
влажн.,
%
обл.,
%
осадки,
мм/ч
давл.,
гПа
погр.,
м
12 мая, ср
ср1223:00−1ююз11925 0.0 102212
02:00−1юз11905 0.0 102212
05:00−1юз118886 0.0 102210
08:00+2ю117192 0.0 1022114
11:00+6в225738 0.0 1022681
14:00+5вюв326335 0.0 1021571
17:00+5вюв336735 0.0 1020376
20:00+3всв1182100 0.0 102057
13 мая, чт
чт1323:00+2зюз1181100 0.0 102011
02:00+3зюз1177100 0.0 101914
05:00+3юз1179100 0.0 101812
08:00+4ююв2279100 0.2 101680
11:00+5ю3686100 0.5 1015454
14:00+5ю2794100 0.8 1014507
17:00+8ююз3108553 1.0 1012579
20:00+8ю28822 0.0 1011343
14 мая, пт
пт1423:00+5ю239089 0.0 101283
02:00+5ю229433 0.0 101123
05:00+3сз119424 0.2 101013
08:00+6с008878 0.0 1011106
11:00+9св227653 0.1 1010465
14:00+8св328138 0.4 1011371
17:00+7св228438 1.1 1011286
20:00+6ссв22887 0.1 101386
15 мая, сб
сб1523:00+3св119610 0.1 101513
02:00+2с119734 0.0 101518
05:00+2всв119862 0.1 101637
08:00+3всв229367 0.0 1016159
11:00+5в3381100 0.1 1015247
14:00+6вюв4584100 0.1 1013240
17:00+8всв1778100 0.1 1011473
20:00+7юв41394100 1.7 1009656
16 мая, вс
вс1623:00+8ю71792100 6.9 1007781
02:00+9ю81890100 5.2 1004603
05:00+8ююз41093100 11.9 1002294
08:00+8юз3892100 0.9 1002279
11:00+10юз51284100 0.9 1001532
14:00+12зюз813705 0.1 1001873
17:00+13зюз712675 0.1 10001061
20:00+11юз512703 0.0 1000448